Location: Pitton
(51.0667°N, 1.7000°W)
Time: 14:54:51
(UTC+00:00)

Cosmos 2360 Rocket - Pass Details

Date: 17 September 2019
Orbit: 833 x 846 km, 71.0° (Epoch: 21 October)

Event Time Altitude Azimuth Distance (km) Brightness Sun altitude
Rises 19:00:18 0° 325° (NW) 3,403 6.2 -7.5°
Reaches altitude 10° 19:02:54 10° 318° (NW) 2,466 5.6 -7.9°
Maximum altitude 19:08:03 38° 252° (WSW) 1,274 3.8 -8.7°
Drops below altitude 10° 19:13:12 10° 186° (S) 2,458 4.5 -9.5°
Sets 19:15:47 0° 179° (S) 3,390 5.2 -9.9°
